Time,TemperatureF,DewpointF,PressureIn,WindDirection,WindDirectionDegrees,WindSpeedMPH,WindSpeedGustMPH,Humidity,HourlyPrecipIn,Conditions,Clouds,dailyrainin,SoftwareType,DateUTC
2013-10-01 00:00:00,75.1,71.6,29.97,ESE,123,2.0,9.0,89,0.00,,---,0.00,VWS V14.00,2013-10-01 05:00:00,
2013-10-01 00:02:00,75.0,71.5,29.97,ESE,123,4.0,6.0,89,0.00,,---,0.00,VWS V14.00,2013-10-01 05:02:00,
2013-10-01 00:08:00,75.0,71.5,29.97,SE,138,4.0,9.0,89,0.00,,---,0.00,VWS V14.00,2013-10-01 05:08:00,
2013-10-01 00:14:00,74.9,71.4,29.97,SE,130,4.0,9.0,89,0.00,,---,0.00,VWS V14.00,2013-10-01 05:14:00,
2013-10-01 00:19:00,74.8,71.3,29.97,East,97,2.0,9.0,89,0.00,,---,0.00,VWS V14.00,2013-10-01 05:19:00,
2013-10-01 00:24:00,74.8,71.7,29.97,SE,126,5.0,9.0,90,0.00,,---,0.00,VWS V14.00,2013-10-01 05:24:00,
2013-10-01 00:29:00,74.8,71.7,29.97,East,90,2.0,9.0,90,0.00,,---,0.00,VWS V14.00,2013-10-01 05:29:00,
2013-10-01 00:30:00,74.8,71.7,29.97,ESE,104,6.0,9.0,90,0.00,,---,0.00,VWS V14.00,2013-10-01 05:30:00,
2013-10-01 00:34:00,74.8,71.3,29.97,SE,138,6.0,7.0,89,0.00,,---,0.00,VWS V14.00,2013-10-01 05:34:00,
2013-10-01 00:39:00,74.7,71.2,29.97,SE,127,4.0,8.0,89,0.00,,---,0.00,VWS V14.00,2013-10-01 05:39:00,
2013-10-01 00:44:00,74.7,71.2,29.97,ESE,105,2.0,11.0,89,0.00,,---,0.00,VWS V14.00,2013-10-01 05:44:00,
2013-10-01 00:49:00,74.6,71.2,29.97,ESE,122,4.0,11.0,89,0.00,,---,0.00,VWS V14.00,2013-10-01 05:49:00,
2013-10-01 00:54:00,74.4,70.9,29.98,SE,138,7.0,11.0,89,0.00,,---,0.00,VWS V14.00,2013-10-01 05:54:00,
2013-10-01 00:59:00,74.3,70.8,29.98,East,101,4.0,11.0,89,0.00,,---,0.00,VWS V14.00,2013-10-01 05:59:00,
2013-10-01 01:00:00,74.3,70.8,29.98,SE,128,5.0,11.0,89,0.00,,---,0.00,VWS V14.00,2013-10-01 06:00:00,
2013-10-01 01:05:00,74.2,71.1,29.98,ESE,105,1.0,6.0,90,0.00,,---,0.00,VWS V14.00,2013-10-01 06:05:00,
2013-10-01 01:10:00,74.1,70.7,29.99,East,86,3.0,7.0,89,0.00,,---,0.00,VWS V14.00,2013-10-01 06:10:00,
2013-10-01 01:15:00,74.0,70.6,29.98,ENE,77,1.0,7.0,89,0.00,,---,0.00,VWS V14.00,2013-10-01 06:15:00,
2013-10-01 01:20:00,73.9,70.5,29.98,SE,124,0.0,7.0,89,0.00,,---,0.00,VWS V14.00,2013-10-01 06:20:00,
2013-10-01 01:25:00,73.9,70.5,29.99,ESE,106,1.0,7.0,89,0.00,,---,0.00,VWS V14.00,2013-10-01 06:25:00,
2013-10-01 01:30:00,73.8,70.4,29.98,ESE,111,5.0,7.0,89,0.00,,---,0.00,VWS V14.00,2013-10-01 06:30:00,
2013-10-01 01:35:00,73.7,70.3,29.98,SE,126,2.0,6.0,89,0.00,,---,0.00,VWS V14.00,2013-10-01 06:35:00,
2013-10-01 01:40:00,73.6,70.2,29.98,East,90,2.0,7.0,89,0.00,,---,0.00,VWS V14.00,2013-10-01 06:40:00,
2013-10-01 01:45:00,73.5,70.1,29.98,ESE,114,2.0,7.0,89,0.00,,---,0.00,VWS V14.00,2013-10-01 06:45:00,
2013-10-01 01:50:00,73.5,70.1,29.98,East,90,1.0,7.0,89,0.00,,---,0.00,VWS V14.00,2013-10-01 06:50:00,
2013-10-01 01:55:00,73.4,70.0,29.98,SE,128,1.0,7.0,89,0.00,,---,0.00,VWS V14.00,2013-10-01 06:55:00,
2013-10-01 02:00:00,73.4,70.0,29.98,SE,126,4.0,7.0,89,0.00,,---,0.00,VWS V14.00,2013-10-01 07:00:00,
2013-10-01 02:01:00,73.4,70.0,29.98,SE,126,4.0,7.0,89,0.00,,---,0.00,VWS V14.00,2013-10-01 07:01:00,
2013-10-01 02:06:00,73.3,69.9,29.98,East,86,3.0,5.0,89,0.00,,---,0.00,VWS V14.00,2013-10-01 07:06:00,
2013-10-01 02:11:00,73.3,69.9,29.98,ESE,111,4.0,5.0,89,0.00,,---,0.00,VWS V14.00,2013-10-01 07:11:00,
2013-10-01 02:16:00,73.2,69.8,29.98,East,93,1.0,5.0,89,0.00,,---,0.00,VWS V14.00,2013-10-01 07:16:00,
2013-10-01 02:21:00,73.2,69.8,29.98,East,96,2.0,5.0,89,0.00,,---,0.00,VWS V14.00,2013-10-01 07:21:00,
2013-10-01 02:26:00,73.1,69.7,29.98,East,80,0.0,5.0,89,0.00,,---,0.00,VWS V14.00,2013-10-01 07:26:00,
2013-10-01 02:30:00,73.0,69.6,29.98,SE,125,1.0,6.0,89,0.00,,---,0.00,VWS V14.00,2013-10-01 07:30:00,
2013-10-01 02:32:00,73.0,69.9,29.98,SE,125,0.0,4.0,90,0.00,,---,0.00,VWS V14.00,2013-10-01 07:32:00,
2013-10-01 02:37:00,73.0,69.9,29.98,SE,126,2.0,5.0,90,0.00,,---,0.00,VWS V14.00,2013-10-01 07:37:00,
2013-10-01 02:42:00,72.9,69.5,29.98,ESE,119,2.0,7.0,89,0.00,,---,0.00,VWS V14.00,2013-10-01 07:42:00,
2013-10-01 02:47:00,72.8,69.4,29.98,SE,125,2.0,7.0,89,0.00,,---,0.00,VWS V14.00,2013-10-01 07:47:00,
2013-10-01 02:52:00,72.8,69.4,29.98,ESE,113,0.0,7.0,89,0.00,,---,0.00,VWS V14.00,2013-10-01 07:52:00,
2013-10-01 02:57:00,72.8,69.7,29.98,ESE,113,0.0,7.0,90,0.00,,---,0.00,VWS V14.00,2013-10-01 07:57:00,
2013-10-01 03:00:00,72.7,69.3,29.98,ESE,113,0.0,7.0,89,0.00,,---,0.00,VWS V14.00,2013-10-01 08:00:00,
2013-10-01 03:02:00,72.6,69.2,29.98,ESE,113,0.0,1.0,89,0.00,,---,0.00,VWS V14.00,2013-10-01 08:02:00,
2013-10-01 03:07:00,72.4,69.0,29.98,ESE,111,0.0,4.0,89,0.00,,---,0.00,VWS V14.00,2013-10-01 08:07:00,
2013-10-01 03:13:00,72.2,68.8,29.98,ESE,109,0.0,4.0,89,0.00,,---,0.00,VWS V14.00,2013-10-01 08:13:00,
2013-10-01 03:18:00,71.9,68.8,29.98,ESE,109,0.0,4.0,90,0.00,,---,0.00,VWS V14.00,2013-10-01 08:18:00,
2013-10-01 03:23:00,71.7,68.6,29.98,East,92,0.0,5.0,90,0.00,,---,0.00,VWS V14.00,2013-10-01 08:23:00,
2013-10-01 03:28:00,71.5,68.4,29.98,ENE,71,0.0,5.0,90,0.00,,---,0.00,VWS V14.00,2013-10-01 08:28:00,
2013-10-01 03:30:00,71.4,68.3,29.98,ENE,71,0.0,5.0,90,0.00,,---,0.00,VWS V14.00,2013-10-01 08:30:00,
2013-10-01 03:35:00,71.3,68.2,29.98,ENE,71,0.0,2.0,90,0.00,,---,0.00,VWS V14.00,2013-10-01 08:35:00,
2013-10-01 03:40:00,71.1,68.0,29.98,ENE,71,0.0,3.0,90,0.00,,---,0.00,VWS V14.00,2013-10-01 08:40:00,
2013-10-01 03:45:00,71.0,68.2,29.98,ENE,67,0.0,3.0,91,0.00,,---,0.00,VWS V14.00,2013-10-01 08:45:00,
2013-10-01 03:50:00,70.9,68.2,29.98,ENE,67,0.0,3.0,91,0.00,,---,0.00,VWS V14.00,2013-10-01 08:50:00,
2013-10-01 03:55:00,70.8,68.1,29.98,ENE,67,0.0,3.0,91,0.00,,---,0.00,VWS V14.00,2013-10-01 08:55:00,
2013-10-01 04:00:00,70.6,67.8,29.98,ENE,67,0.0,4.0,91,0.00,,---,0.00,VWS V14.00,2013-10-01 09:00:00,
2013-10-01 04:05:00,70.4,67.7,29.98,ENE,66,0.0,3.0,91,0.00,,---,0.00,VWS V14.00,2013-10-01 09:05:00,
2013-10-01 04:11:00,70.3,67.6,29.98,ENE,57,1.0,3.0,91,0.00,,---,0.00,VWS V14.00,2013-10-01 09:11:00,
2013-10-01 04:16:00,70.2,67.4,29.98,ENE,57,0.0,3.0,91,0.00,,---,0.00,VWS V14.00,2013-10-01 09:16:00,
2013-10-01 04:21:00,70.1,67.7,29.98,ENE,57,0.0,3.0,92,0.00,,---,0.00,VWS V14.00,2013-10-01 09:21:00,
2013-10-01 04:26:00,70.0,67.6,29.98,ENE,57,1.0,3.0,92,0.00,,---,0.00,VWS V14.00,2013-10-01 09:26:00,
2013-10-01 04:30:00,69.9,67.5,29.98,ENE,57,0.0,3.0,92,0.00,,---,0.00,VWS V14.00,2013-10-01 09:30:00,
2013-10-01 04:31:00,69.9,67.5,29.98,ENE,57,0.0,3.0,92,0.00,,---,0.00,VWS V14.00,2013-10-01 09:31:00,
2013-10-01 04:37:00,69.7,67.3,29.98,ENE,57,0.0,3.0,92,0.00,,---,0.00,VWS V14.00,2013-10-01 09:37:00,
2013-10-01 04:42:00,69.6,67.2,29.98,ENE,57,2.0,3.0,92,0.00,,---,0.00,VWS V14.00,2013-10-01 09:42:00,
2013-10-01 04:47:00,69.5,67.1,29.98,ENE,57,0.0,3.0,92,0.00,,---,0.00,VWS V14.00,2013-10-01 09:47:00,
2013-10-01 04:52:00,69.4,67.0,29.99,ENE,57,1.0,4.0,92,0.00,,---,0.00,VWS V14.00,2013-10-01 09:52:00,
2013-10-01 04:57:00,69.3,66.9,29.99,ENE,57,0.0,4.0,92,0.00,,---,0.00,VWS V14.00,2013-10-01 09:57:00,
2013-10-01 05:00:00,69.3,66.9,29.99,ENE,57,2.0,4.0,92,0.00,,---,0.00,VWS V14.00,2013-10-01 10:00:00,
2013-10-01 05:02:00,69.3,67.2,29.99,ENE,57,3.0,3.0,93,0.00,,---,0.00,VWS V14.00,2013-10-01 10:02:00,
2013-10-01 05:07:00,69.3,67.2,29.99,ENE,57,1.0,3.0,93,0.00,,---,0.00,VWS V14.00,2013-10-01 10:07:00,
2013-10-01 05:12:00,69.2,67.1,29.99,East,82,0.0,3.0,93,0.00,,---,0.00,VWS V14.00,2013-10-01 10:12:00,
2013-10-01 05:18:00,69.2,67.1,29.99,East,82,0.0,3.0,93,0.00,,---,0.00,VWS V14.00,2013-10-01 10:18:00,
2013-10-01 05:23:00,69.2,67.1,29.99,East,94,0.0,3.0,93,0.00,,---,0.00,VWS V14.00,2013-10-01 10:23:00,
2013-10-01 05:28:00,69.1,67.0,30.00,East,88,3.0,3.0,93,0.00,,---,0.00,VWS V14.00,2013-10-01 10:28:00,
2013-10-01 05:30:00,69.1,67.0,30.00,East,88,0.0,3.0,93,0.00,,---,0.00,VWS V14.00,2013-10-01 10:30:00,
2013-10-01 05:33:00,69.0,66.9,30.00,East,88,0.0,2.0,93,0.00,,---,0.00,VWS V14.00,2013-10-01 10:33:00,
2013-10-01 05:38:00,69.0,66.9,30.00,East,86,0.0,3.0,93,0.00,,---,0.00,VWS V14.00,2013-10-01 10:38:00,
2013-10-01 05:43:00,68.9,66.8,30.00,East,86,0.0,3.0,93,0.00,,---,0.00,VWS V14.00,2013-10-01 10:43:00,
2013-10-01 05:48:00,68.8,66.7,30.00,East,86,0.0,3.0,93,0.00,,---,0.00,VWS V14.00,2013-10-01 10:48:00,
2013-10-01 05:54:00,68.6,66.5,30.00,ENE,63,0.0,5.0,93,0.00,,---,0.00,VWS V14.00,2013-10-01 10:54:00,
2013-10-01 05:59:00,68.6,66.8,30.00,ENE,63,0.0,5.0,94,0.00,,---,0.00,VWS V14.00,2013-10-01 10:59:00,
2013-10-01 06:00:00,68.6,66.8,30.00,ENE,63,0.0,5.0,94,0.00,,---,0.00,VWS V14.00,2013-10-01 11:00:00,
2013-10-01 06:05:00,68.6,66.8,30.01,East,95,0.0,4.0,94,0.00,,---,0.00,VWS V14.00,2013-10-01 11:05:00,
2013-10-01 06:10:00,68.5,66.7,30.01,NE,49,0.0,4.0,94,0.00,,---,0.00,VWS V14.00,2013-10-01 11:10:00,
2013-10-01 06:15:00,68.5,66.7,30.01,NE,54,0.0,4.0,94,0.00,,---,0.00,VWS V14.00,2013-10-01 11:15:00,
2013-10-01 06:21:00,68.4,66.6,30.02,NE,53,1.0,4.0,94,0.00,,---,0.00,VWS V14.00,2013-10-01 11:21:00,
2013-10-01 06:26:00,68.4,66.6,30.01,ENE,70,0.0,4.0,94,0.00,,---,0.00,VWS V14.00,2013-10-01 11:26:00,
2013-10-01 06:30:00,68.4,66.6,30.01,NNE,33,1.0,4.0,94,0.00,,---,0.00,VWS V14.00,2013-10-01 11:30:00,
2013-10-01 06:31:00,68.4,66.6,30.01,NNE,33,3.0,3.0,94,0.00,,---,0.00,VWS V14.00,2013-10-01 11:31:00,
2013-10-01 06:36:00,68.4,66.6,30.02,NNE,33,0.0,3.0,94,0.00,,---,0.00,VWS V14.00,2013-10-01 11:36:00,
2013-10-01 06:41:00,68.4,66.6,30.02,NNE,33,0.0,3.0,94,0.00,,---,0.00,VWS V14.00,2013-10-01 11:41:00,
2013-10-01 06:46:00,68.3,66.5,30.02,NNE,32,0.0,3.0,94,0.00,,---,0.00,VWS V14.00,2013-10-01 11:46:00,
2013-10-01 06:51:00,68.2,66.4,30.02,NNE,32,0.0,3.0,94,0.00,,---,0.00,VWS V14.00,2013-10-01 11:51:00,
2013-10-01 06:57:00,68.2,66.4,30.02,NNE,32,0.0,3.0,94,0.00,,---,0.00,VWS V14.00,2013-10-01 11:57:00,
2013-10-01 07:00:00,68.3,66.5,30.02,NNE,32,1.0,3.0,94,0.00,,---,0.00,VWS V14.00,2013-10-01 12:00:00,
2013-10-01 07:02:00,68.3,66.5,30.02,NNE,32,0.0,3.0,94,0.00,,---,0.00,VWS V14.00,2013-10-01 12:02:00,
2013-10-01 07:07:00,68.3,66.5,30.02,NNE,32,0.0,3.0,94,0.00,,---,0.00,VWS V14.00,2013-10-01 12:07:00,
2013-10-01 07:12:00,68.5,66.7,30.02,NNE,32,0.0,3.0,94,0.00,,---,0.00,VWS V14.00,2013-10-01 12:12:00,
2013-10-01 07:19:00,68.7,66.9,30.02,NNE,31,2.0,4.0,94,0.00,,---,0.00,VWS V14.00,2013-10-01 12:19:00,
2013-10-01 07:24:00,68.9,67.1,30.02,NNE,33,0.0,4.0,94,0.00,,---,0.00,VWS V14.00,2013-10-01 12:24:00,
2013-10-01 07:29:00,69.0,67.2,30.03,NNE,29,2.0,4.0,94,0.00,,---,0.00,VWS V14.00,2013-10-01 12:29:00,
2013-10-01 07:30:00,69.1,67.3,30.03,NNE,24,2.0,4.0,94,0.00,,---,0.00,VWS V14.00,2013-10-01 12:30:00,
2013-10-01 07:34:00,69.2,67.4,30.03,NNE,27,0.0,3.0,94,0.00,,---,0.00,VWS V14.00,2013-10-01 12:34:00,
2013-10-01 07:39:00,69.4,67.6,30.03,NNE,17,0.0,5.0,94,0.00,,---,0.00,VWS V14.00,2013-10-01 12:39:00,
2013-10-01 07:44:00,69.8,68.0,30.03,NE,45,0.0,5.0,94,0.00,,---,0.00,VWS V14.00,2013-10-01 12:44:00,
2013-10-01 07:49:00,70.2,68.1,30.03,NE,51,4.0,5.0,93,0.00,,---,0.00,VWS V14.00,2013-10-01 12:49:00,
2013-10-01 07:55:00,70.5,68.4,30.03,ENE,59,1.0,5.0,93,0.00,,---,0.00,VWS V14.00,2013-10-01 12:55:00,
2013-10-01 08:00:00,70.7,68.3,30.03,East,97,2.0,5.0,92,0.00,,---,0.00,VWS V14.00,2013-10-01 13:00:00,
2013-10-01 08:05:00,70.8,68.4,30.04,ESE,118,0.0,5.0,92,0.00,,---,0.00,VWS V14.00,2013-10-01 13:05:00,
2013-10-01 08:11:00,71.2,68.4,30.04,SE,127,2.0,8.0,91,0.00,,---,0.00,VWS V14.00,2013-10-01 13:11:00,
2013-10-01 08:16:00,71.5,68.7,30.04,ENE,73,1.0,8.0,91,0.00,,---,0.00,VWS V14.00,2013-10-01 13:16:00,
2013-10-01 08:21:00,72.0,69.2,30.04,ENE,74,1.0,8.0,91,0.00,,---,0.00,VWS V14.00,2013-10-01 13:21:00,
2013-10-01 08:27:00,72.5,69.4,30.04,East,88,3.0,8.0,90,0.00,,---,0.00,VWS V14.00,2013-10-01 13:27:00,
2013-10-01 08:30:00,72.7,69.3,30.04,ESE,110,4.0,8.0,89,0.00,,---,0.00,VWS V14.00,2013-10-01 13:30:00,
2013-10-01 08:32:00,72.8,69.4,30.04,SE,125,4.0,7.0,89,0.00,,---,0.00,VWS V14.00,2013-10-01 13:32:00,
2013-10-01 08:37:00,73.0,69.6,30.05,ENE,57,2.0,7.0,89,0.00,,---,0.00,VWS V14.00,2013-10-01 13:37:00,
2013-10-01 08:42:00,73.3,69.5,30.04,SE,124,4.0,9.0,88,0.00,,---,0.00,VWS V14.00,2013-10-01 13:42:00,
2013-10-01 08:47:00,73.5,69.7,30.04,East,88,2.0,9.0,88,0.00,,---,0.00,VWS V14.00,2013-10-01 13:47:00,
2013-10-01 08:52:00,73.7,69.9,30.05,ESE,119,5.0,9.0,88,0.00,,---,0.00,VWS V14.00,2013-10-01 13:52:00,
2013-10-01 08:58:00,73.8,70.0,30.05,ESE,103,4.0,9.0,88,0.00,,---,0.00,VWS V14.00,2013-10-01 13:58:00,
2013-10-01 09:00:00,74.0,70.6,30.05,NE,52,2.0,9.0,89,0.00,,---,0.00,VWS V14.00,2013-10-01 14:00:00,
2013-10-01 09:03:00,74.2,70.4,30.04,ESE,109,5.0,7.0,88,0.00,,---,0.00,VWS V14.00,2013-10-01 14:03:00,
2013-10-01 09:08:00,74.3,70.2,30.05,SE,126,7.0,8.0,87,0.00,,---,0.00,VWS V14.00,2013-10-01 14:08:00,
2013-10-01 09:13:00,74.4,70.3,30.05,ESE,123,6.0,8.0,87,0.00,,---,0.00,VWS V14.00,2013-10-01 14:13:00,
2013-10-01 09:18:00,74.5,70.7,30.05,East,95,2.0,8.0,88,0.00,,---,0.00,VWS V14.00,2013-10-01 14:18:00,
2013-10-01 09:23:00,74.8,71.0,30.05,SE,126,4.0,8.0,88,0.00,,---,0.00,VWS V14.00,2013-10-01 14:23:00,
2013-10-01 09:28:00,75.1,71.0,30.06,SE,134,1.0,8.0,87,0.00,,---,0.00,VWS V14.00,2013-10-01 14:28:00,
2013-10-01 09:30:00,75.2,70.7,30.06,ESE,122,2.0,8.0,86,0.00,,---,0.00,VWS V14.00,2013-10-01 14:30:00,
2013-10-01 09:34:00,75.4,71.6,30.05,SE,127,4.0,5.0,88,0.00,,---,0.00,VWS V14.00,2013-10-01 14:34:00,
2013-10-01 09:39:00,75.9,71.8,30.05,ESE,107,6.0,7.0,87,0.00,,---,0.00,VWS V14.00,2013-10-01 14:39:00,
2013-10-01 09:44:00,76.2,71.7,30.05,SE,133,6.0,11.0,86,0.00,,---,0.00,VWS V14.00,2013-10-01 14:44:00,
2013-10-01 09:49:00,76.2,71.4,30.05,SE,139,5.0,11.0,85,0.00,,---,0.00,VWS V14.00,2013-10-01 14:49:00,
2013-10-01 09:54:00,76.5,72.0,30.05,ESE,103,7.0,11.0,86,0.00,,---,0.00,VWS V14.00,2013-10-01 14:54:00,
2013-10-01 09:59:00,76.4,71.9,30.06,SE,127,5.0,12.0,86,0.00,,---,0.00,VWS V14.00,2013-10-01 14:59:00,
2013-10-01 10:00:00,76.5,71.7,30.06,SE,124,0.0,12.0,85,0.00,,---,0.00,VWS V14.00,2013-10-01 15:00:00,
2013-10-01 10:04:00,76.5,72.0,30.06,East,88,4.0,9.0,86,0.00,,---,0.00,VWS V14.00,2013-10-01 15:04:00,
2013-10-01 10:10:00,76.6,72.1,30.05,SE,131,4.0,9.0,86,0.00,,---,0.00,VWS V14.00,2013-10-01 15:10:00,
2013-10-01 10:15:00,76.8,72.6,30.05,ESE,111,4.0,9.0,87,0.00,,---,0.00,VWS V14.00,2013-10-01 15:15:00,
2013-10-01 10:20:00,77.0,72.5,30.05,ESE,114,4.0,9.0,86,0.00,,---,0.00,VWS V14.00,2013-10-01 15:20:00,
2013-10-01 10:25:00,77.3,72.4,30.05,ESE,115,5.0,9.0,85,0.00,,---,0.00,VWS V14.00,2013-10-01 15:25:00,
2013-10-01 10:30:00,77.4,72.5,30.05,ESE,114,2.0,9.0,85,0.00,,---,0.00,VWS V14.00,2013-10-01 15:30:00,
2013-10-01 10:35:00,77.7,73.2,30.05,ESE,122,4.0,8.0,86,0.00,,---,0.00,VWS V14.00,2013-10-01 15:35:00,
2013-10-01 10:41:00,77.9,73.4,30.05,SE,129,5.0,8.0,86,0.00,,---,0.00,VWS V14.00,2013-10-01 15:41:00,
2013-10-01 11:00:00,77.6,73.1,30.05,SE,135,5.0,11.0,86,0.00,,---,0.00,VWS V14.00,2013-10-01 16:00:00,
2013-10-01 11:30:00,78.9,73.7,30.04,SE,135,5.0,11.0,84,0.00,,---,0.00,VWS V14.00,2013-10-01 16:30:00,
2013-10-01 11:47:00,79.3,74.1,30.04,SE,126,5.0,8.0,84,0.00,,---,0.00,VWS V14.00,2013-10-01 16:47:00,
2013-10-01 11:52:00,79.5,73.9,30.04,ESE,111,7.0,11.0,83,0.00,,---,0.00,VWS V14.00,2013-10-01 16:52:00,
2013-10-01 11:58:00,79.6,73.6,30.04,ESE,109,4.0,14.0,82,0.00,,---,0.00,VWS V14.00,2013-10-01 16:58:00,
2013-10-01 12:00:00,79.5,73.9,30.03,ESE,121,5.0,14.0,83,0.00,,---,0.00,VWS V14.00,2013-10-01 17:00:00,
2013-10-01 12:03:00,79.5,73.9,30.04,ESE,122,4.0,9.0,83,0.00,,---,0.00,VWS V14.00,2013-10-01 17:03:00,
2013-10-01 12:08:00,79.7,74.4,30.03,SE,132,5.0,9.0,84,0.00,,---,0.00,VWS V14.00,2013-10-01 17:08:00,
2013-10-01 12:13:00,79.8,73.8,30.03,SE,126,6.0,9.0,82,0.00,,---,0.00,VWS V14.00,2013-10-01 17:13:00,
2013-10-01 12:18:00,80.0,74.4,30.03,SE,125,9.0,9.0,83,0.00,,---,0.00,VWS V14.00,2013-10-01 17:18:00,
2013-10-01 12:23:00,80.0,74.0,30.03,SE,128,2.0,9.0,82,0.00,,---,0.00,VWS V14.00,2013-10-01 17:23:00,
2013-10-01 12:28:00,80.2,74.2,30.02,SE,126,4.0,11.0,82,0.00,,---,0.00,VWS V14.00,2013-10-01 17:28:00,
2013-10-01 12:30:00,80.2,74.2,30.02,SE,126,6.0,12.0,82,0.00,,---,0.00,VWS V14.00,2013-10-01 17:30:00,
2013-10-01 12:33:00,80.2,73.8,30.02,ESE,111,4.0,11.0,81,0.00,,---,0.00,VWS V14.00,2013-10-01 17:33:00,
2013-10-01 12:38:00,80.2,74.2,30.02,East,91,8.0,11.0,82,0.00,,---,0.00,VWS V14.00,2013-10-01 17:38:00,
2013-10-01 12:43:00,80.3,74.7,30.02,ESE,113,4.0,11.0,83,0.00,,---,0.00,VWS V14.00,2013-10-01 17:43:00,
2013-10-01 12:48:00,80.5,74.5,30.01,ESE,115,5.0,11.0,82,0.00,,---,0.00,VWS V14.00,2013-10-01 17:48:00,
2013-10-01 12:53:00,80.7,74.7,30.01,SE,128,7.0,11.0,82,0.00,,---,0.00,VWS V14.00,2013-10-01 17:53:00,
2013-10-01 12:59:00,80.9,74.2,30.01,SE,128,7.0,11.0,80,0.00,,---,0.00,VWS V14.00,2013-10-01 17:59:00,
2013-10-01 13:00:00,80.8,74.1,30.01,SE,126,6.0,11.0,80,0.00,,---,0.00,VWS V14.00,2013-10-01 18:00:00,
2013-10-01 13:04:00,80.7,74.0,30.01,ESE,119,4.0,11.0,80,0.00,,---,0.00,VWS V14.00,2013-10-01 18:04:00,
2013-10-01 13:09:00,80.9,73.8,30.00,SE,126,12.0,12.0,79,0.00,,---,0.00,VWS V14.00,2013-10-01 18:09:00,
2013-10-01 13:14:00,81.0,74.2,30.00,ESE,121,5.0,12.0,80,0.00,,---,0.00,VWS V14.00,2013-10-01 18:14:00,
2013-10-01 13:19:00,81.1,73.6,30.00,ESE,103,4.0,12.0,78,0.00,,---,0.00,VWS V14.00,2013-10-01 18:19:00,
2013-10-01 13:24:00,81.2,74.1,30.00,SE,127,5.0,12.0,79,0.00,,---,0.00,VWS V14.00,2013-10-01 18:24:00,
2013-10-01 13:29:00,81.3,73.4,30.00,ESE,120,5.0,12.0,77,0.00,,---,0.00,VWS V14.00,2013-10-01 18:29:00,
2013-10-01 13:30:00,81.3,73.8,30.00,ESE,123,2.0,12.0,78,0.00,,---,0.00,VWS V14.00,2013-10-01 18:30:00,
2013-10-01 13:34:00,81.4,73.9,30.00,ESE,123,1.0,7.0,78,0.00,,---,0.00,VWS V14.00,2013-10-01 18:34:00,
2013-10-01 13:39:00,81.6,74.5,30.00,SE,126,4.0,7.0,79,0.00,,---,0.00,VWS V14.00,2013-10-01 18:39:00,
2013-10-01 13:44:00,81.8,74.3,30.00,ESE,123,8.0,8.0,78,0.00,,---,0.00,VWS V14.00,2013-10-01 18:44:00,
2013-10-01 13:50:00,81.8,73.1,30.00,SE,130,4.0,8.0,75,0.00,,---,0.00,VWS V14.00,2013-10-01 18:50:00,
2013-10-01 13:55:00,81.9,73.6,30.00,SE,134,5.0,8.0,76,0.00,,---,0.00,VWS V14.00,2013-10-01 18:55:00,
2013-10-01 14:00:00,82.0,73.7,29.99,SE,135,3.0,8.0,76,0.00,,---,0.00,VWS V14.00,2013-10-01 19:00:00,
2013-10-01 14:30:00,81.9,75.5,29.99,ESE,112,3.0,8.0,81,0.00,,---,0.00,VWS V14.00,2013-10-01 19:30:00,
2013-10-01 15:00:00,81.7,74.6,29.98,SE,135,2.0,8.0,79,0.00,,---,0.00,VWS V14.00,2013-10-01 20:00:00,
2013-10-01 15:30:00,81.8,73.9,29.97,SE,135,2.0,9.0,77,0.00,,---,0.00,VWS V14.00,2013-10-01 20:30:00,
2013-10-01 16:00:00,81.6,74.8,29.97,ESE,112,1.0,8.0,80,0.00,,---,0.00,VWS V14.00,2013-10-01 21:00:00,
2013-10-01 16:30:00,81.4,74.6,29.97,SE,135,1.0,7.0,80,0.00,,---,0.00,VWS V14.00,2013-10-01 21:30:00,
2013-10-01 17:00:00,81.1,74.7,29.97,SE,135,1.0,6.0,81,0.00,,---,0.00,VWS V14.00,2013-10-01 22:00:00,
2013-10-01 17:30:00,81.0,75.0,29.97,SE,135,0.0,4.0,82,0.00,,---,0.00,VWS V14.00,2013-10-01 22:30:00,
2013-10-01 18:00:00,80.6,74.2,29.98,SE,135,0.0,4.0,81,0.00,,---,0.00,VWS V14.00,2013-10-01 23:00:00,
2013-10-01 18:30:00,79.9,73.9,29.99,SE,135,0.0,0.0,82,0.00,,---,0.00,VWS V14.00,2013-10-01 23:30:00,
2013-10-01 19:00:00,79.0,73.4,29.99,SE,135,0.0,0.0,83,0.00,,---,0.00,VWS V14.00,2013-10-02 00:00:00,
2013-10-01 19:35:00,78.3,73.8,30.00,SE,135,0.0,0.0,86,0.00,,---,0.00,VWS V14.00,2013-10-02 00:35:00,
2013-10-01 19:36:00,78.2,73.7,30.00,SE,124,0.0,0.0,86,0.00,,---,0.00,VWS V14.00,2013-10-02 00:36:00,
2013-10-01 19:41:00,78.0,73.5,30.00,SE,124,0.0,0.0,86,0.00,,---,0.00,VWS V14.00,2013-10-02 00:41:00,
2013-10-01 19:46:00,77.9,73.7,30.00,SE,124,0.0,0.0,87,0.00,,---,0.00,VWS V14.00,2013-10-02 00:46:00,
2013-10-01 19:51:00,77.8,73.6,30.00,SE,124,0.0,0.0,87,0.00,,---,0.00,VWS V14.00,2013-10-02 00:51:00,
2013-10-01 19:56:00,77.6,73.4,30.01,SE,124,0.0,0.0,87,0.00,,---,0.00,VWS V14.00,2013-10-02 00:56:00,
2013-10-01 20:01:00,77.5,73.3,30.01,SE,124,0.0,0.0,87,0.00,,---,0.00,VWS V14.00,2013-10-02 01:01:00,
2013-10-01 20:06:00,77.4,73.2,30.01,SE,124,0.0,0.0,87,0.00,,---,0.00,VWS V14.00,2013-10-02 01:06:00,
2013-10-01 20:11:00,77.3,73.5,30.01,SE,124,0.0,0.0,88,0.00,,---,0.00,VWS V14.00,2013-10-02 01:11:00,
2013-10-01 20:16:00,77.3,73.5,30.01,SE,124,0.0,0.0,88,0.00,,---,0.00,VWS V14.00,2013-10-02 01:16:00,
2013-10-01 20:21:00,77.2,73.4,30.01,SE,124,0.0,0.0,88,0.00,,---,0.00,VWS V14.00,2013-10-02 01:21:00,
2013-10-01 20:26:00,77.2,73.7,30.01,SE,124,0.0,0.0,89,0.00,,---,0.00,VWS V14.00,2013-10-02 01:26:00,
2013-10-01 20:31:00,77.2,73.7,30.01,SE,124,0.0,0.0,89,0.00,,---,0.00,VWS V14.00,2013-10-02 01:31:00,
2013-10-01 20:36:00,77.1,73.6,30.01,SE,124,0.0,0.0,89,0.00,,---,0.00,VWS V14.00,2013-10-02 01:36:00,
2013-10-01 20:41:00,77.1,73.6,30.01,SE,124,0.0,0.0,89,0.00,,---,0.00,VWS V14.00,2013-10-02 01:41:00,
2013-10-01 20:46:00,77.1,73.6,30.01,SE,124,0.0,0.0,89,0.00,,---,0.00,VWS V14.00,2013-10-02 01:46:00,
2013-10-01 20:51:00,77.0,73.5,30.02,SE,124,0.0,0.0,89,0.00,,---,0.00,VWS V14.00,2013-10-02 01:51:00,
2013-10-01 20:56:00,77.0,73.5,30.02,SE,124,0.0,0.0,89,0.00,,---,0.00,VWS V14.00,2013-10-02 01:56:00,
2013-10-01 21:01:00,76.9,73.4,30.02,SE,124,0.0,0.0,89,0.00,,---,0.00,VWS V14.00,2013-10-02 02:01:00,
2013-10-01 21:06:00,76.9,73.8,30.02,SE,124,0.0,0.0,90,0.00,,---,0.00,VWS V14.00,2013-10-02 02:06:00,
2013-10-01 21:11:00,76.8,73.7,30.02,SE,124,0.0,1.0,90,0.00,,---,0.00,VWS V14.00,2013-10-02 02:11:00,
2013-10-01 21:16:00,76.8,73.7,30.02,SE,124,0.0,1.0,90,0.00,,---,0.00,VWS V14.00,2013-10-02 02:16:00,
2013-10-01 21:21:00,76.8,73.7,30.02,SE,124,0.0,1.0,90,0.00,,---,0.00,VWS V14.00,2013-10-02 02:21:00,
2013-10-01 21:26:00,76.7,73.9,30.02,SE,124,0.0,1.0,91,0.00,,---,0.00,VWS V14.00,2013-10-02 02:26:00,
2013-10-01 21:31:00,76.7,73.9,30.02,SE,124,0.0,0.0,91,0.00,,---,0.00,VWS V14.00,2013-10-02 02:31:00,
2013-10-01 21:36:00,76.7,73.9,30.03,SE,124,0.0,1.0,91,0.00,,---,0.00,VWS V14.00,2013-10-02 02:36:00,
2013-10-01 21:42:00,76.6,73.8,30.03,SE,124,0.0,1.0,91,0.00,,---,0.00,VWS V14.00,2013-10-02 02:42:00,
2013-10-01 21:47:00,76.5,73.7,30.03,SE,124,0.0,1.0,91,0.00,,---,0.00,VWS V14.00,2013-10-02 02:47:00,
2013-10-01 21:52:00,76.4,73.6,30.03,SE,124,0.0,1.0,91,0.00,,---,0.00,VWS V14.00,2013-10-02 02:52:00,
2013-10-01 21:57:00,76.4,73.6,30.03,SE,124,0.0,1.0,91,0.00,,---,0.00,VWS V14.00,2013-10-02 02:57:00,
2013-10-01 22:02:00,76.3,73.5,30.03,SE,124,0.0,0.0,91,0.00,,---,0.00,VWS V14.00,2013-10-02 03:02:00,
2013-10-01 22:07:00,76.2,73.4,30.03,SE,124,0.0,1.0,91,0.00,,---,0.00,VWS V14.00,2013-10-02 03:07:00,
2013-10-01 22:12:00,76.2,73.4,30.03,SE,124,0.0,1.0,91,0.00,,---,0.00,VWS V14.00,2013-10-02 03:12:00,
2013-10-01 22:17:00,76.1,73.3,30.03,SE,124,0.0,1.0,91,0.00,,---,0.00,VWS V14.00,2013-10-02 03:17:00,
2013-10-01 22:22:00,76.0,73.2,30.04,SE,124,0.0,1.0,91,0.00,,---,0.00,VWS V14.00,2013-10-02 03:22:00,
2013-10-01 22:27:00,75.9,73.1,30.04,SE,124,0.0,1.0,91,0.00,,---,0.00,VWS V14.00,2013-10-02 03:27:00,
2013-10-01 22:32:00,75.8,73.0,30.03,SE,124,0.0,0.0,91,0.00,,---,0.00,VWS V14.00,2013-10-02 03:32:00,
2013-10-01 22:37:00,75.8,73.0,30.03,SE,124,0.0,1.0,91,0.00,,---,0.00,VWS V14.00,2013-10-02 03:37:00,
2013-10-01 22:42:00,75.7,72.9,30.03,SE,124,0.0,1.0,91,0.00,,---,0.00,VWS V14.00,2013-10-02 03:42:00,
2013-10-01 22:47:00,75.6,72.8,30.03,SE,124,0.0,2.0,91,0.00,,---,0.00,VWS V14.00,2013-10-02 03:47:00,
2013-10-01 22:52:00,75.5,72.7,30.03,SE,124,0.0,2.0,91,0.00,,---,0.00,VWS V14.00,2013-10-02 03:52:00,
2013-10-01 22:57:00,75.5,72.7,30.03,SE,124,0.0,2.0,91,0.00,,---,0.00,VWS V14.00,2013-10-02 03:57:00,
2013-10-01 23:01:00,75.5,72.7,30.03,SE,124,0.0,2.0,91,0.00,,---,0.00,VWS V14.00,2013-10-02 04:01:00,
2013-10-01 23:04:00,75.4,72.6,30.03,SE,124,0.0,1.0,91,0.00,,---,0.00,VWS V14.00,2013-10-02 04:04:00,
2013-10-01 23:06:00,75.4,72.6,30.03,SE,124,0.0,1.0,91,0.00,,---,0.00,VWS V14.00,2013-10-02 04:06:00,
2013-10-01 23:10:00,75.4,72.6,30.03,SE,124,0.0,1.0,91,0.00,,---,0.00,VWS V14.00,2013-10-02 04:10:00,
2013-10-01 23:15:00,75.3,72.5,30.03,SE,124,0.0,1.0,91,0.00,,---,0.00,VWS V14.00,2013-10-02 04:15:00,
2013-10-01 23:18:00,75.3,72.5,30.03,SE,124,0.0,2.0,91,0.00,,---,0.00,VWS V14.00,2013-10-02 04:18:00,
2013-10-01 23:23:00,75.3,72.5,30.03,SE,124,0.0,2.0,91,0.00,,---,0.00,VWS V14.00,2013-10-02 04:23:00,
2013-10-01 23:28:00,75.3,72.5,30.03,SE,124,0.0,5.0,91,0.00,,---,0.00,VWS V14.00,2013-10-02 04:28:00,
2013-10-01 23:33:00,75.7,72.9,30.03,SE,124,1.0,4.0,91,0.00,,---,0.00,VWS V14.00,2013-10-02 04:33:00,
2013-10-01 23:38:00,76.1,73.3,30.03,ESE,123,5.0,8.0,91,0.00,,---,0.00,VWS V14.00,2013-10-02 04:38:00,
2013-10-01 23:43:00,76.7,73.6,30.03,SE,127,5.0,8.0,90,0.00,,---,0.00,VWS V14.00,2013-10-02 04:43:00,
2013-10-01 23:48:00,77.3,73.8,30.03,East,85,4.0,9.0,89,0.00,,---,0.00,VWS V14.00,2013-10-02 04:48:00,
2013-10-01 23:53:00,77.6,73.8,30.03,East,101,5.0,9.0,88,0.00,,---,0.00,VWS V14.00,2013-10-02 04:53:00,
2013-10-01 23:58:00,77.8,74.0,30.03,ESE,112,4.0,9.0,88,0.00,,---,0.00,VWS V14.00,2013-10-02 04:58:00,